Regional Weather Roundup
Issued by NWS

Home | Current Version | Previous Version | Text Only | Print | Product List | Glossary On
Versions: 1 2 3 4 5 6 7 8 9 10 11 12 13 14 15 16 17 18 19 20 21 22 23 24 25 26 27 28 29 30 31 32 33 34 35 36 37 38 39 40 41 42 43 44 45 46 47 48 49 50
056
ASUS43 KDMX 110601
RWRIA

WEATHER ROUNDUP FOR IOWA
NATIONAL WEATHER SERVICE DES MOINES IA
1200 AM CST MON DEC 11 2017

NOTE: "FAIR" INDICATES FEW OR NO CLOUDS BELOW 12,000 FEET WITH NO
SIGNIFICANT WEATHER AND/OR OBSTRUCTIONS TO VISIBILITY.

* - THESE STATIONS ARE NOT NWS STATIONS...THUS NOT UNDER NWS
QUALITY CONTROL.  THEY ALSO DO NOT REPORT WEATHER SUCH
AS PRECIPITATION OR FOG.

IAZ001>003-012>014-020>022-031>034-043>046-110700-
   NORTHWEST IOWA

CITY           SKY/WX    TMP DP  RH WIND       PRES   REMARKS
CARROLL *      PTCLDY    32  23  69 SW6       29.99S WCI  26
CHEROKEE *     CLOUDY    31  26  83 S5        29.97F WCI  26
DENISON *      CLOUDY    30  23  74 CALM      30.01F
LE MARS *      PTCLDY    32  27  80 S8        29.97F WCI  25
ORANGE CITY *  PTCLDY    36  28  75 SW8       29.95F WCI  29
SHELDON *      CLOUDY    32  27  80 SW5       29.93F WCI  27
SIOUX CITY     CLOUDY    27  22  81 CALM      29.99F
6HR MIN TEMP:  27; 6HR MAX TEMP:  37;

SPENCER        CLOUDY    29  24  82 SW3       29.96F
6HR MIN TEMP:  28; 6HR MAX TEMP:  34;

STORM LAKE *   CLOUDY    34  25  69 W10       29.97R WCI  26
$$

IAZ055>058-069>071-079>083-090>094-110700-
   SOUTHWEST IOWA

CITY           SKY/WX    TMP DP  RH WIND       PRES   REMARKS
ATLANTIC *     CLOUDY    25  21  86 CALM      30.03S
AUDUBON *      CLOUDY    27  21  80 CALM      30.01F
CLARINDA *       N/A     23  19  86 SW3       30.06F
COUNCIL BLFS * CLOUDY    41  25  52 SW8       30.01F
CRESTON *      CLOUDY    34  25  69 SW7       30.04F WCI  28
HARLAN  *      CLOUDY    28  23  80 CALM      30.05F
LAMONI         CLOUDY    35  24  64 S8        30.04F WCI  29
6HR MIN TEMP:  35; 6HR MAX TEMP:  38;

RED OAK *      CLOUDY    27  23  86 CALM      30.03F
SHENANDOAH *   CLOUDY    25  19  80 NE6       30.05F WCI  18
$$

IAZ047>049-059>061-072>074-084-110700-
   CENTRAL IOWA

CITY           SKY/WX    TMP DP  RH WIND       PRES   REMARKS
AMES           CLOUDY    32  25  75 CALM      30.00F
6HR MIN TEMP:  27; 6HR MAX TEMP:  37;

ANKENY *       CLOUDY    32  25  74 S3        30.04F
BOONE *        CLOUDY    34  25  69 S5        29.99F WCI  30
CHARITON *     CLOUDY    34  25  69 S6        30.03F WCI  29
DES MOINES     CLOUDY    34  25  69 S5        30.03F WCI  30
6HR MIN TEMP:  34; 6HR MAX TEMP:  41;

GRINNELL*      CLOUDY    32  25  74 S6        30.03F WCI  26
KNOXVILLE *    CLOUDY    34  23  64 SW6       30.02F WCI  29
MARSHALLTOWN   CLOUDY    32  23  69 SE6       30.01F WCI  26
6HR MIN TEMP:  28; 6HR MAX TEMP:  32;

NEWTON *       CLOUDY    32  25  74 S6        30.03F WCI  26
PELLA *        CLOUDY    33  25  72 CALM      30.05F
$$

IAZ004>006-015-016-023>025-035-036-110700-
   NORTH CENTRAL IOWA

CITY           SKY/WX    TMP DP  RH WIND       PRES   REMARKS
ALGONA *       CLOUDY    30  25  80 S7        29.96F WCI  23
CLARION *      MOCLDY    32  25  74 SE6       29.98F WCI  26
ESTHERVILLE    PTCLDY    29  27  92 SW9       29.94F WCI  20
6HR MIN TEMP:  28; 6HR MAX TEMP:  32;

FORT DODGE *   CLOUDY    32  24  72 CALM      29.97F
MASON CITY     CLOUDY    29  22  75 S6        30.00S WCI  23
6HR MIN TEMP:  27; 6HR MAX TEMP:  29;

FOREST CITY *  MOCLDY    32  27  80 S5        29.96F WCI  27
WEBSTER CITY * CLOUDY    32  23  69 S8        29.96F WCI  25
IOWA FALLS *     N/A     32  25  74 S6        30.01S WCI  26
$$

IAZ007>011-017>019-026>030-037>042-050>054-066-110700-
   NORTHEAST IOWA

CITY           SKY/WX    TMP DP  RH WIND       PRES   REMARKS
CEDAR RAPIDS   CLOUDY    29  23  78 S5        30.03F WCI  24
6HR MIN TEMP:  25; 6HR MAX TEMP:  30;

CHARLES CITY * CLOUDY    27  25  93 SE5       30.00F WCI  21
CLINTON *      PTCLDY    19  16  88 CALM      30.07F
DECORAH *      CLOUDY    25  21  86 SE5       29.99F WCI  19
DUBUQUE        CLOUDY    18  15  88 CALM      30.03F
6HR MIN TEMP:  16; 6HR MAX TEMP:  25;

MONTICELLO *   CLOUDY    21  19  93 CALM      30.04F
OELWEIN *      CLOUDY    25  25 100 SE6       30.01F WCI  18
WATERLOO       CLOUDY    29  22  75 SE7       30.02F WCI  22
6HR MIN TEMP:  25; 6HR MAX TEMP:  30;

$$

IAZ064-065-067-068-078-110700-
   EAST CENTRAL IOWA

CITY           SKY/WX    TMP DP  RH WIND       PRES   REMARKS
DAVENPORT      MOCLDY    23  19  85 SE3       30.08F
6HR MIN TEMP:  20; 6HR MAX TEMP:  30;

IOWA CITY      CLOUDY    30  23  75 CALM      30.07F
6HR MIN TEMP:  25; 6HR MAX TEMP:  33;

MT. PLEASANT * PTCLDY    30  24  76 S6        30.07F WCI  24
MUSCATINE *    CLOUDY    30  25  80 S5        30.08S WCI  25
QUAD CITIES    CLOUDY    23  19  85 E5        30.06F WCI  17
6HR MIN TEMP:  20; 6HR MAX TEMP:  34;

$$

IAZ062-063-075>077-085>089-095>099-110700-
   SOUTHEAST IOWA

CITY           SKY/WX    TMP DP  RH WIND       PRES   REMARKS
BURLINGTON     CLOUDY    28  22  78 SE5       30.07F WCI  23
6HR MIN TEMP:  27; 6HR MAX TEMP:  35;

FAIRFIELD *    CLOUDY    32  23  69 S3        30.05F
FORT MADISON * CLEAR     30  25  80 S3        30.07F
KEOKUK *       PTCLDY    32  25  74 S3        30.07F
OSKALOOSA *      N/A     32  24  73 S6        30.05S WCI  26
OTTUMWA        CLOUDY    33  25  72 SE5       30.04F WCI  29
6HR MIN TEMP:  31; 6HR MAX TEMP:  37;

WASHINGTON *   CLOUDY    30  25  80 S7        30.07S WCI  23
$$

ABBREVIATIONS USED IN REMARKS
   TC - TEMPERATURES IN CELSIUS
  WCI - WIND CHILL INDEX
   HX - HEAT INDEX
  VSB - VISIBILITY
$$





USA.gov is the U.S. government's official web portal to all federal, state and local government web resources and services.